AirNav  
 
 1094 users online  

MA45 Simmons Heliport
Hanover, Massachusetts, USA

GOING TO HANOVER?


FAA INFORMATION EFFECTIVE 12 OCTOBER 2017

Location

FAA Identifier: MA45
Lat/Long: 42-07-30.3640N / 070-50-35.1520W
42-07.506067N / 070-50.585867W
42.1251011 / -70.8430978
(estimated)
Elevation: 90 ft. / 27 m (estimated)
Variation: 16W (1985)
From city: 1 mile N of HANOVER, MA
Time zone: UTC -4 (UTC -5 during Standard Time)
Zip code: 02339

Heliport Operations

Heliport use: Private use. Permission required prior to landing
Activation date: 01/1975
Control tower: no
ARTCC: BOSTON CENTER
FSS: BRIDGEPORT FLIGHT SERVICE STATION
Attendance: UNATNDD
Wind indicator: yes
Segmented circle: no

Heliport Communications

WX AWOS-3 at GHG (8 nm E): 120.0 (781-837-0555)
WX ASOS at PYM (14 nm S): 135.625 (508-746-8003)
WX ASOS at OWD (15 nm W): PHONE 781-762-4314
WX ASOS at BOS (16 nm NW): PHONE 617-567-5762
WX ASOS at TAN (17 nm SW): 132.675 (508-824-5005)

Nearby radio navigation aids

VOR radial/distance  VOR name  Freq  Var
BOSr171/15.4BOSTON VOR/DME112.7016W
PVDr061/35.5PROVIDENCE VOR/DME115.6014W
LFVr296/36.5MARCONI VOR/DME114.7016W
LWMr178/38.6LAWRENCE VOR/DME112.5015W

 
NDB name  Hdg/Dist  Freq  Var  ID
MARSHFIELD298/7.636816WIMR .. -- .-.
STOGE104/12.739715WOW --- .--
TAUNTON043/16.822716WTAN - .- -.
SHAKER HILL159/24.825116WSKR ... -.- .-.
PROVINCETOWN293/27.838916WPVC .--. ...- -.-.

Heliport Services

Airframe service: NONE
Powerplant service: NONE

Runway Information

Helipad H1

Dimensions: 50 x 50 ft. / 15 x 15 m
Surface: concrete
Traffic pattern: leftleft

Heliport Ownership and Management from official FAA records

Ownership: Privately-owned
Owner: STEVEN E SIMMONS
SILVER ST
HANOVER, MA 02339
Phone 617-826-4735

Heliport Operational Statistics

Aircraft based on the field: 1
Helicopters: 1
    

Instrument Procedures

There are no published instrument procedures at MA45.

Some nearby airports with instrument procedures:

KGHG - Marshfield Municipal Airport - George Harlow Field (8 nm E)
KPYM - Plymouth Municipal Airport (14 nm S)
KOWD - Norwood Memorial Airport (15 nm W)
KBOS - General Edward Lawrence Logan International Airport (16 nm NW)
KTAN - Taunton Municipal Airport - King Field (17 nm SW)
1B9 - Mansfield Municipal Airport (17 nm SW)
 
Loc | Ops | Rwys | IFR | FBO | Links
Com | Nav | Svcs | Stats | Notes


 
Area around MA45 (Simmons Heliport)
 
Road maps at: MapQuest Bing Google
 
Aerial photo
No photo
 
Sectional chart

 
Airport distance calculator
Flying to Simmons Heliport? Find the distance to fly.

From to MA45

Sunrise and sunset
Times for 23-Oct-2017
 Local
(UTC-4)
 Zulu
(UTC)
Morning civil twilight06:3810:38
Sunrise07:0611:06
Sunset17:4921:49
Evening civil twilight18:1822:18

Current date and time
Zulu (UTC)  23-Oct-2017 23:24:11
Local (UTC-4)  23-Oct-2017 19:24:11
 
METAR
KGHG 
8nm E 
232255Z AUTO 16004KT 10SM CLR 19/18 A3020 RMK AO2
KMQE 
13nm NW 
232256Z AUTO 15008KT 17/14 A3019 RMK AO1 SLP235 T01670139
KPYM 
13nm S 
232303Z AUTO VRB04KT 10SM FEW010 SCT028 BKN037 19/17 A3020 RMK AO2 T01940167
KOWD 
15nm W 
232253Z 00000KT 10SM BKN020 BKN024 BKN034 17/15 A3019 RMK AO2 SLP223 T01670150
KBOS 
16nm NW 
232254Z 07003KT 1/4SM R04R/1400V3000FT FG VV002 14/14 A3020 RMK AO2 TWR VIS 1/4 SLP226 T01390139
KTAN 
16nm SW 
232252Z AUTO VRB03KT 10SM CLR 19/17 A3019 RMK AO2 SLP223 T01890167
TAF
KBOS 
16nm NW 
232104Z 2321/2424 07006KT 1 1/2SM BR BKN002 BKN250 FM240000 08007KT 1SM BR BKN003 FM240300 11008KT 1/2SM FG BKN003 FM241100 16011G19KT 1SM BR OVC008 FM241300 16014G22KT 4SM BR VCSH OVC010 FM241600 16015G24KT 6SM BR VCSH OVC025 FM241900 17016G26KT P6SM VCSH OVC025
NOTAMs
Click for the latest NOTAMs
NOTAMs are issued by the DoD/FAA and will open in a separate window not controlled by AirNav.

 

 
 

Would you like to see your business listed on this page?

 If your business provides an interesting product or service to pilots, flight crews, aircraft, or users of the Simmons Heliport, you should consider listing it here.  To start the listing process, click on the button below
 
Add a business
 

Other Pages about Simmons Heliport

Update a link
 
Copyright © AirNav, LLC. All rights reserved. Privacy Policy  Contact